Tracking 25378 objects as of 22-Jan-2022
HD Live streaming from Space Station
objects crossing your sky now

STARLINK-1918

Track STARLINK-1918 now!
10-day predictions
STARLINK-1918 is classified as:


NORAD ID: 46768
Int'l Code: 2020-074AF
Perigee: 552.9 km
Apogee: 555.9 km
Inclination: 53.1 °
Period: 95.6 minutes
Semi major axis: 6925 km
RCS: Unknown
Launch date: October 24, 2020
Source: United States (US)
Launch site: AIR FORCE EASTERN TEST RANGE (AFETR)
aabbcc
Your satellite tracking list
Your tracking list is empty




NASA's NSSDC Master Catalog

Two Line Element Set (TLE):
1 46768U 20074AF  22021.40846040 -.00004275  00000-0 -26834-3 0  9993
2 46768  53.0539 267.5628 0002140  61.4045 298.7160 15.06384141 69136
Source of the keplerian elements: AFSPC